This is the latest recevied weather packets stored in our database for station/object KR4DFQ. If no packets are shown the sender has not sent any weather packets the latest 10 day(s).
| Time | Temp. | Humidity | Pressure | Rain* | Wind** | Luminosity | Snow |
|---|---|---|---|---|---|---|---|
| 1787410586 | 33.89° C | 56% | 1018.4 hPa | 0 mm | - | 767 W/m² | - |
| 1787410286 | 33.89° C | 55% | 1018.1 hPa | 0 mm | - | 752 W/m² | - |
| 1787409983 | 33.33° C | 59% | 1018.3 hPa | 0 mm | - | 725 W/m² | - |
| 1787409679 | 33.33° C | 57% | 1018.1 hPa | 0 mm | - | 709 W/m² | - |
| 1787409375 | 33.33° C | 58% | 1018.4 hPa | 0 mm | - | 512 W/m² | - |
| 1787409070 | 32.78° C | 59% | 1018.2 hPa | 0 mm | - | 530 W/m² | - |
| 1787408765 | 32.78° C | 60% | 1018.2 hPa | 0 mm | - | 592 W/m² | - |
| 1787408460 | 32.78° C | 61% | 1018.2 hPa | 0 mm | - | 408 W/m² | - |
| 1787408156 | 32.78° C | 60% | 1018.1 hPa | 0 mm | - | 485 W/m² | - |
| 1787407851 | 33.33° C | 60% | 1018.2 hPa | 0 mm | - | 487 W/m² | - |
| 1787407547 | 33.33° C | 62% | 1018.1 hPa | 0 mm | - | 607 W/m² | - |
| 1787407247 | 32.78° C | 61% | 1018 hPa | 0 mm | - | 576 W/m² | - |
| 1787406942 | 32.22° C | 62% | 1017.9 hPa | 0 mm | - | 559 W/m² | - |
| 1787406638 | 32.78° C | 63% | 1017.9 hPa | 0 mm | - | 543 W/m² | - |
| 1787406334 | 32.78° C | 63% | 1017.9 hPa | 0 mm | - | 516 W/m² | - |
| 1787406029 | 32.22° C | 65% | 1018 hPa | 0 mm | - | 490 W/m² | - |
| 1787405726 | 31.67° C | 67% | 1017.9 hPa | 0 mm | - | 462 W/m² | - |
| 1787405422 | 31.67° C | 64% | 1017.8 hPa | 0 mm | - | 413 W/m² | - |
| 1787405116 | 31.67° C | 66% | 1017.9 hPa | 0 mm | - | 397 W/m² | - |
| 1787404813 | 31.67° C | 65% | 1018.2 hPa | 0 mm | - | 393 W/m² | - |
| 1787404508 | 31.67° C | 67% | 1018 hPa | 0 mm | - | 388 W/m² | - |
| 1787404208 | 31.67° C | 67% | 1018 hPa | 0 mm | - | 374 W/m² | - |
| 1787403902 | 31.11° C | 70% | 1017.9 hPa | 0 mm | - | 350 W/m² | - |
| 1787403597 | 31.11° C | 67% | 1017.8 hPa | 0 mm | - | 317 W/m² | - |
| 1787403292 | 30.56° C | 69% | 1017.9 hPa | 0 mm | - | 292 W/m² | - |
* Rain latest hour (hover to see other rain measurements)
** Current wind speed in m/s (hover to see current wind gust speed)